Regional Weather Roundup
Issued by NWS

Home | Current Version | Previous Version | Text Only | Print | Product List | Glossary Off
Versions: 1 2 3 4 5 6 7 8 9 10 11 12 13 14 15 16 17 18 19 20 21 22 23 24 25 26 27 28 29 30 31 32 33 34 35 36 37 38 39 40 41 42 43 44 45 46 47 48 49 50

000
ASUS43 KMKX 241100
RWRWI

WISCONSIN REGIONAL WEATHER ROUNDUP
NATIONAL WEATHER SERVICE MILWAUKEE/SULLIVAN WI
600 AM CDT SUN JUL 24 2016

NOTE: "FAIR" INDICATES FEW OR NO CLOUDS BELOW 12,000 FEET WITH NO
SIGNIFICANT WEATHER AND/OR OBSTRUCTIONS TO VISIBILITY.

WIZ001-002-006>008-014>016-023>028-241200-
NORTHWEST WISCONSIN

CITY           SKY/WX    TMP DP  RH WIND       PRES   REMARKS
SUPERIOR ARPT  CLEAR     60  60 100 SW3       29.74R FOG
ASHLAND        CLOUDY    68  66  93 W5        29.74R
HAYWARD        CLOUDY    67  64  90 SW5       29.78R
SIREN          CLEAR     66  64  94 CALM      29.77R
CUMBERLAND       N/A     64  63  94 S6        29.78F
RICE LAKE      PTCLDY    67  65  93 CALM      29.79F
CHETEK         PTCLDY    68  67  97 MISG      29.78F
LADYSMITH      CLOUDY    69  68  95 S3        29.80R
EAU CLAIRE     CLOUDY    70  70 100 N5        29.78S FOG
MENOMONIE      LGT RAIN  71  70  99 CALM      29.79S
NEW RICHMOND   PTCLDY    68  68  99 SE3       29.79S
OSCEOLA        CLEAR     68  68 100 CALM      29.81R
$$

WIZ003>005-009-010-017-018-241200-
NORTH CENTRAL WISCONSIN

CITY           SKY/WX    TMP DP  RH WIND       PRES   REMARKS
MANITOWISH WTR TSTM      67  67 100 CALM      29.82F
ARBOR VITAE    TSTM      70  68  93 W6        29.87R
WOODRUFF       TSTM      70  68  93 W6        29.87R
RHINELANDER    HVY RAIN  70  68  93 NW8G24    29.88R FOG
EAGLE RIVER    CLOUDY    69  69 100 W9        29.86R FOG
LAND O LAKES   CLOUDY    69  69  99 W6        29.87R
PHILLIPS       MOCLDY    67  67  98 S6G16     29.75F
TOMAHAWK       CLOUDY    68  67  95 CALM      29.87R FOG
MEDFORD        FOG       68  68 100 CALM      29.83S VSB 3/4
MERRILL        CLOUDY    70  70 100 W3        29.85R FOG
$$

WIZ029-030-035-036-043>047-241200-
CENTRAL WISCONSIN

CITY           SKY/WX    TMP DP  RH WIND       PRES   REMARKS
WAUSAU         LGT RAIN  71  69  93 VRB3      29.81S FOG
MOSINEE        CLOUDY    70  70 100 SW3       29.85R FOG
MARSHFIELD     CLOUDY    71  69  93 CALM      29.81R FOG
STEVENS POINT  CLOUDY    69  69 100 S6        29.83F
WAUPACA        CLOUDY    73  73  98 S3        29.82F
WAUTOMA        CLOUDY    71  70  96 SE3       29.83R
WISC RAPIDS    CLOUDY    72  70  93 SW5       29.82F
CAMP DOUGLAS   MOCLDY    74  73  97 S6        29.80S
$$

WIZ011>013-019>022-031-037>040-048>050-241200-
NORTHEAST WISCONSIN

CITY           SKY/WX    TMP DP  RH WIND       PRES   REMARKS
ANTIGO         CLOUDY    69  69 100 CALM      29.85R FOG
SHAWANO        CLOUDY    73  70  91 S3        29.82F
OCONTO         CLOUDY   N/A N/A N/A S3        29.81F
STURGEON BAY   CLOUDY    70  69  97 S9        29.83F
GREEN BAY      CLOUDY    72  72 100 S7        29.82F
MANITOWOC      CLOUDY    70  66  88 S6        29.84F
APPLETON       CLOUDY    72  72 100 S8        29.82S
CLINTONVILLE   CLOUDY    70  70 100 S7        29.81F
OSHKOSH        CLOUDY    71  69  93 S7        29.83F
$$

WIZ032>034-041-042-053>061-241200-
SOUTHWEST WISCONSIN

CITY           SKY/WX    TMP DP  RH WIND       PRES   REMARKS
LA CROSSE      MOCLDY    76  74  93 S8        29.77R
SPARTA         CLOUDY    72  71  99 CALM      29.80R
VIROQUA        MOCLDY    74  74 100 S7        29.81F
BOSCOBEL       CLOUDY    78  76  93 S5        29.80F HX  81
PRAIRIE DU CHI PTCLDY    77  74  90 CALM      29.80S
PLATTEVILLE    PTCLDY    74  74 100 S7        29.85S
$$

WIZ056-057-062-063-064-067-068-241200-
SOUTH CENTRAL WISCONSIN

CITY           SKY/WX    TMP DP  RH WIND       PRES   REMARKS
REEDSBURG      CLOUDY    74  74 100 S7        29.81F
BARABOO/DELLS  CLOUDY    73  71  91 SW8       29.82S
LONE ROCK      NOT AVBL
MINERAL POINT  MOCLDY    73  73 100 S6        29.86S
MADISON        CLOUDY    74  71  91 S8        29.83F
MIDDLETON      CLOUDY    74  73  96 SW9       29.84F
WATERTOWN      PTCLDY    71  71 100 SW7       29.85S
MONROE         CLOUDY    72  70  94 S14G20    29.86S
JANESVILLE     CLOUDY    73  72  94 S8        29.86S
$$

WIZ051-052-058>065-066-070>072-241200-
SOUTHEAST WISCONSIN

CITY           SKY/WX    TMP DP  RH WIND       PRES   REMARKS
MILWAUKEE      CLOUDY    73  69  87 SW9       29.86R
WAUKESHA       CLEAR     70  68  94 S9        29.87R
MILWAUKEE/TIMM CLEAR     72  66  83 SW7       29.86S
RACINE         CLOUDY    73  69  87 SW10      29.88S
BURLINGTON     CLEAR     71  70  96 S7        29.87S
KENOSHA        CLEAR     73  69  87 S9        29.87F
FOND DU LAC    CLOUDY    73  69  87 S8        29.84F
SHEBOYGAN      CLOUDY    71  68  90 S9        29.86R
WEST BEND      CLOUDY    70  68  94 NE9       29.87R
JUNEAU         CLOUDY    69  68  98 S7        29.86S
$$

LSZ147-162-241200-
LAKE SUPERIOR

STATION/POSITION TIME  TEMP    WIND        PRES    WAVE
                       AIR SEA DIR/SP/G            HT/PER
                 (UTC) (F)     (DEG/KT/KT) (MB)    (FT/S)
W MID LAKE BUOY  0950   62 57  180/  8/ 10 1006.3F   1/ 4
DEVILS ISLAND    1000   65     320/  6/  8 1006.3R
PORT WING        1000   61      90/  2/  5 1007.1F
SAXON HARBOR     1000   73     220/  9     1004.1F
$$

LMZ867-665-643>646-241200-
LAKE MICHIGAN

STATION/POSITION TIME  TEMP    WIND        PRES    WAVE
                       AIR SEA DIR/SP/G            HT/PER
                 (UTC) (F)     (DEG/KT/KT) (MB)    (FT/S)
CHAMBERS ISLAND  1000   72     190/  4/  8 1009.8F
S GREEN BAY BUOY 1000   74 75  200/ 10/ 14   N/A
N MID LAKE BUOY  0950   71 70  180/ 14/ 19 1009.8F   0
NORTHPORT PIER   1000   69     170/  4/  9 1010.2F
KEWAUNEE LAKESHO 1000   62     180/ 10/ 12 1010.0F
SHEBOYGAN LAKESH 1000   69      80/ 12/ 13 1012.2F
PORT WASHINGTON  1040   60      30/ 10/ 13 1012.9R
MILWAUKEE LAKESH 1010   71     200/ 10/ 12   N/A
S MID LAKE BUOY  0950   72 72  150/ 16/ 19 1010.9F   2/ 3
KENOSHA   LAKESH 1000   71     190/  8/  9 1011.2F
$$

TC  - TEMPERATURE IN CELSIUS
VSB - VISIBILITY IN STATUTE MILES
WCI - WIND CHILL INDEX
HX  - HEAT INDEX




USA.gov is the U.S. government's official web portal to all federal, state and local government web resources and services.